Date String (YYYY-MM-DD hh:mm:ss) UTC,Instrument flags,absolute air pressure of the measurement (hPa),sample flow rate (lpm),inlet stack bypass flow (lpm),air temperature of the measurement (°C),ambient temperature measured by the external sensor (°C),aerosol sample conditioner tube jacket temperature (°C),OPC LED temperature (°C),internal box temperature (°C),relative humidity of the measurement (%),span deviation,mass concentration of particles derived from Lorenz-Mie calculation of OPC scattering (μg/m³),mass concentration of particles derived from Lorenz-Mie calculation of OPC scattering (μg/m³),mass concentration of particles derived from Lorenz-Mie calculation of OPC scattering (μg/m³)
DateTimeUTC,F1_M11,P_M11,Q1_M11,Q2_M11,T1_M11,T2_M11,T3_M11,T4_M11,T5_M11,U1_M11,ZSPAN_M11,X0_M11,X2_M11,X1_M11
2024-03-28 22:00:00,SystemResetWarning,0820.4,4.99,000.00,024.6,024.0,000.0,032.9,026.4,10.7,0000.0,0004.97,0002.72,0001.68
2024-03-28 22:01:00,SystemResetWarning,0820.5,5.00,000.00,024.6,024.0,000.0,032.9,026.4,10.6,0000.0,0005.19,0002.77,0001.69
2024-03-28 22:02:00,SystemResetWarning,0820.4,5.00,000.00,024.6,024.0,000.0,032.9,026.4,10.6,0000.0,0005.23,0002.76,0001.68
2024-03-28 22:03:00,SystemResetWarning,0820.3,5.00,000.00,024.6,024.1,000.0,033.0,026.4,10.8,0000.0,0005.34,0002.79,0001.68
2024-03-28 22:04:00,SystemResetWarning,0820.5,5.01,000.00,024.7,024.1,000.0,033.0,026.5,10.6,0000.0,0005.39,0002.80,0001.68
2024-03-28 22:05:00,SystemResetWarning,0820.8,5.00,000.00,024.7,024.1,000.0,033.0,026.5,10.1,0000.0,0006.01,0002.76,0001.68
2024-03-28 22:06:00,SystemResetWarning,0820.8,5.00,000.00,024.7,024.1,000.0,033.0,026.5,10.3,0000.0,0006.23,0002.77,0001.69
2024-03-28 22:07:00,SystemResetWarning,0820.8,5.00,000.00,024.7,024.1,000.0,033.0,026.5,11.0,0000.0,0006.65,0002.80,0001.69
2024-03-28 22:08:00,SystemResetWarning,0820.6,4.99,000.00,024.7,024.1,000.0,033.0,026.5,10.8,0000.0,0006.80,0002.78,0001.69
2024-03-28 22:09:00,SystemResetWarning,0820.8,5.00,000.00,024.7,024.1,000.0,033.0,026.5,10.9,0000.0,0006.93,0002.80,0001.70
2024-03-28 22:10:00,SystemResetWarning,0820.8,4.99,000.00,024.7,024.1,000.0,033.0,026.5,11.1,0000.0,0006.85,0002.76,0001.68
2024-03-28 22:11:00,SystemResetWarning,0820.5,5.00,000.00,024.7,024.1,000.0,033.1,026.5,10.9,0000.0,0006.61,0002.70,0001.68
2024-03-28 22:12:00,SystemResetWarning,0820.8,5.01,000.00,024.7,024.1,000.0,033.1,026.5,10.7,0000.0,0006.92,0002.64,0001.67
2024-03-28 22:13:00,SystemResetWarning,0820.5,5.01,000.00,024.7,024.1,000.0,033.1,026.5,10.6,0000.0,0007.45,0002.61,0001.68
2024-03-28 22:14:00,SystemResetWarning,0820.6,5.01,000.00,024.7,024.1,000.0,033.1,026.6,10.6,0000.0,0007.40,0002.59,0001.68
2024-03-28 22:15:00,SystemResetWarning,0820.6,4.99,000.00,024.7,024.1,000.0,033.1,026.6,10.4,0000.0,0007.45,0002.62,0001.68
2024-03-28 22:16:00,SystemResetWarning,0820.6,5.00,000.00,024.8,024.1,000.0,033.1,026.6,10.5,0000.0,0006.86,0002.68,0001.69
2024-03-28 22:17:00,SystemResetWarning,0820.4,4.99,000.00,024.8,024.1,000.0,033.1,026.6,10.4,0000.0,0006.88,0002.71,0001.68
2024-03-28 22:18:00,SystemResetWarning,0820.7,5.00,000.00,024.8,024.1,000.0,033.1,026.6,10.3,0000.0,0006.73,0002.74,0001.69
2024-03-28 22:19:00,SystemResetWarning,0820.5,5.00,000.00,024.8,024.1,000.0,033.1,026.6,10.2,0000.0,0006.87,0002.77,0001.71
2024-03-28 22:20:00,SystemResetWarning,0820.5,5.00,000.00,024.8,024.1,000.0,033.1,026.6,10.5,0000.0,0006.88,0002.79,0001.70
2024-03-28 22:21:00,SystemResetWarning,0820.5,5.02,000.00,024.8,024.1,000.0,033.2,026.6,10.6,0000.0,0006.79,0002.76,0001.69
2024-03-28 22:22:00,SystemResetWarning,0820.5,4.99,000.00,024.8,024.1,000.0,033.2,026.6,10.4,0000.0,0006.88,0002.79,0001.70
2024-03-28 22:23:00,SystemResetWarning,0820.6,4.99,000.00,024.8,024.1,000.0,033.2,026.6,10.4,0000.0,0006.57,0002.78,0001.71
2024-03-28 22:24:00,SystemResetWarning,0820.6,5.00,000.00,024.8,024.1,000.0,033.2,026.6,10.5,0000.0,0005.63,0002.82,0001.71
2024-03-28 22:25:00,SystemResetWarning,0820.6,5.01,000.00,024.8,024.1,000.0,033.2,026.6,10.5,0000.0,0005.49,0002.78,0001.69
2024-03-28 22:26:00,SystemResetWarning,0820.6,5.01,000.00,024.8,024.1,000.0,033.2,026.6,10.4,0000.0,0005.43,0002.76,0001.69
2024-03-28 22:27:00,SystemResetWarning,0820.5,4.99,000.00,024.8,024.1,000.0,033.2,026.6,10.5,0000.0,0005.40,0002.75,0001.68
2024-03-28 22:28:00,SystemResetWarning,0820.5,4.99,000.00,024.8,024.1,000.0,033.2,026.6,10.4,0000.0,0005.18,0002.70,0001.67
2024-03-28 22:29:00,SystemResetWarning,0820.6,5.00,000.00,024.8,024.1,000.0,033.2,026.6,10.6,0000.0,0006.02,0002.63,0001.66
2024-03-28 22:30:00,SystemResetWarning,0820.7,5.00,000.00,024.8,024.1,000.0,033.2,026.6,10.5,0000.0,0006.52,0002.61,0001.64
2024-03-28 22:31:00,SystemResetWarning,0820.7,5.00,000.00,024.8,024.1,000.0,033.2,026.6,11.0,0000.0,0006.37,0002.60,0001.65
2024-03-28 22:32:00,SystemResetWarning,0820.6,5.00,000.00,024.8,024.1,000.0,033.2,026.6,11.2,0000.0,0006.53,0002.57,0001.66
2024-03-28 22:33:00,SystemResetWarning,0820.6,5.00,000.00,024.8,024.1,000.0,033.2,026.6,11.4,0000.0,0007.11,0002.56,0001.67
2024-03-28 22:34:00,SystemResetWarning,0820.5,5.00,000.00,024.8,024.1,000.0,033.2,026.6,11.3,0000.0,0007.14,0002.60,0001.66
2024-03-28 22:35:00,SystemResetWarning,0820.7,5.02,000.00,024.8,024.1,000.0,033.2,026.6,10.9,0000.0,0007.10,0002.57,0001.66
2024-03-28 22:36:00,SystemResetWarning,0820.6,4.99,000.00,024.8,024.1,000.0,033.3,026.6,10.6,0000.0,0007.14,0002.57,0001.66
2024-03-28 22:37:00,SystemResetWarning,0820.7,4.99,000.00,024.8,024.2,000.0,033.3,026.6,10.7,0000.0,0007.21,0002.56,0001.65
2024-03-28 22:38:00,SystemResetWarning,0820.6,4.99,000.00,024.9,024.2,000.0,033.3,026.6,10.7,0000.0,0007.04,0002.47,0001.65
2024-03-28 22:39:00,SystemResetWarning,0820.6,5.01,000.00,024.9,024.2,000.0,033.3,026.7,10.8,0000.0,0007.16,0002.52,0001.65
2024-03-28 22:40:00,SystemResetWarning,0820.6,5.01,000.00,024.9,024.2,000.0,033.3,026.7,10.9,0000.0,0006.46,0002.52,0001.65
2024-03-28 22:41:00,SystemResetWarning,0820.6,5.00,000.00,024.9,024.2,000.0,033.3,026.7,11.1,0000.0,0005.37,0002.52,0001.65
2024-03-28 22:42:00,SystemResetWarning,0820.6,5.00,000.00,024.9,024.2,000.0,033.3,026.7,10.8,0000.0,0005.32,0002.52,0001.66
2024-03-28 22:43:00,SystemResetWarning,0820.6,5.00,000.00,024.9,024.2,000.0,033.3,026.7,10.7,0000.0,0005.29,0002.54,0001.66
2024-03-28 22:44:00,SystemResetWarning,0820.7,5.00,000.00,024.9,024.2,000.0,033.3,026.7,10.7,0000.0,0004.60,0002.58,0001.66
2024-03-28 22:45:00,SystemResetWarning,0820.5,5.00,000.00,024.9,024.2,000.0,033.3,026.7,10.8,0000.0,0004.83,0002.61,0001.67
2024-03-28 22:46:00,SystemResetWarning,0820.7,5.00,000.00,024.9,024.3,000.0,033.3,026.7,11.2,0000.0,0005.46,0002.66,0001.68
2024-03-28 22:47:00,SystemResetWarning,0820.7,5.00,000.00,024.9,024.3,000.0,033.3,026.7,10.8,0000.0,0005.63,0002.73,0001.71
2024-03-28 22:48:00,SystemResetWarning,0820.7,5.00,000.00,024.9,024.3,000.0,033.4,026.7,10.6,0000.0,0005.61,0002.75,0001.72
2024-03-28 22:49:00,SystemResetWarning,0820.6,5.00,000.00,025.0,024.3,000.0,033.4,026.8,10.7,0000.0,0006.37,0002.83,0001.73
2024-03-28 22:50:00,SystemResetWarning,0820.3,5.00,000.00,025.0,024.3,000.0,033.4,026.8,10.9,0000.0,0006.57,0002.82,0001.74
2024-03-28 22:51:00,SystemResetWarning,0820.4,5.00,000.00,025.0,024.3,000.0,033.4,026.8,11.1,0000.0,0006.56,0002.83,0001.74
2024-03-28 22:52:00,SystemResetWarning,0820.4,5.01,000.00,025.0,024.3,000.0,033.4,026.8,11.0,0000.0,0006.50,0002.80,0001.74
2024-03-28 22:53:00,SystemResetWarning,0820.3,5.00,000.00,025.0,024.4,000.0,033.4,026.8,11.1,0000.0,0006.38,0002.77,0001.74
2024-03-28 22:54:00,SystemResetWarning,0820.4,5.00,000.00,025.0,024.4,000.0,033.4,026.8,11.0,0000.0,0006.36,0002.72,0001.74
2024-03-28 22:55:00,SystemResetWarning,0820.3,4.99,000.00,025.0,024.4,000.0,033.4,026.8,10.8,0000.0,0006.33,0002.73,0001.74
2024-03-28 22:56:00,SystemResetWarning,0820.3,5.00,000.00,025.0,024.4,000.0,033.4,026.8,10.9,0000.0,0006.38,0002.78,0001.74
2024-03-28 22:57:00,SystemResetWarning,0820.3,5.00,000.00,025.0,024.4,000.0,033.4,026.9,11.0,0000.0,0006.16,0002.82,0001.75
2024-03-28 22:58:00,SystemResetWarning,0820.4,5.00,000.00,025.1,024.4,000.0,033.4,026.9,10.8,0000.0,0006.06,0002.82,0001.74
2024-03-28 22:59:00,SystemResetWarning,0820.3,5.00,000.00,025.1,024.4,000.0,033.4,026.9,10.6,0000.0,0006.17,0002.87,0001.74
